TimeCST,TemperatureF,Dew PointF,Humidity,Sea Level PressureIn,VisibilityMPH,Wind Direction,Wind SpeedMPH,Gust SpeedMPH,PrecipitationIn,Events,Conditions,WindDirDegrees,DateUTC
12:15 AM,32.0,26.6,80,29.75,10.0,ESE,17.3,-,N/A,,Overcast,110,2013-02-21 06:15:00
12:35 AM,32.0,26.6,80,29.74,10.0,ESE,19.6,-,N/A,,Overcast,120,2013-02-21 06:35:00
1:15 AM,30.2,26.6,86,29.70,10.0,ESE,16.1,-,N/A,,Overcast,120,2013-02-21 07:15:00
1:35 AM,30.2,26.6,86,29.69,10.0,ESE,17.3,24.2,N/A,,Overcast,120,2013-02-21 07:35:00
1:55 AM,30.2,26.6,86,29.71,10.0,ESE,19.6,-,N/A,,Overcast,120,2013-02-21 07:55:00
2:15 AM,30.2,26.6,86,29.68,10.0,ESE,24.2,29.9,N/A,,Overcast,120,2013-02-21 08:15:00
2:35 AM,30.2,26.6,86,29.69,9.0,SE,19.6,-,N/A,,Overcast,130,2013-02-21 08:35:00
2:55 AM,30.2,26.6,86,29.68,10.0,SE,21.9,25.3,N/A,,Overcast,130,2013-02-21 08:55:00
3:15 AM,30.2,26.6,86,29.63,10.0,ESE,24.2,-,N/A,,Overcast,110,2013-02-21 09:15:00
3:35 AM,30.2,26.6,86,29.68,10.0,SE,16.1,21.9,N/A,,Overcast,130,2013-02-21 09:35:00
3:55 AM,30.2,26.6,86,29.68,10.0,SE,11.5,-,N/A,,Overcast,130,2013-02-21 09:55:00
4:15 AM,30.2,26.6,86,29.65,10.0,ESE,19.6,-,N/A,,Overcast,110,2013-02-21 10:15:00
4:35 AM,30.2,24.8,80,29.67,10.0,ESE,12.7,-,N/A,,Overcast,110,2013-02-21 10:35:00
4:55 AM,28.4,24.8,86,29.69,5.0,ESE,9.2,-,N/A,,Overcast,110,2013-02-21 10:55:00
5:15 AM,28.4,24.8,86,29.69,10.0,ESE,9.2,-,N/A,,Overcast,110,2013-02-21 11:15:00
5:55 AM,28.4,24.8,86,29.68,3.0,East,10.4,-,N/A,,Overcast,100,2013-02-21 11:55:00
6:15 AM,28.4,24.8,86,29.68,2.5,ESE,9.2,-,0.01,,Overcast,110,2013-02-21 12:15:00
6:35 AM,28.4,24.8,86,29.67,3.0,East,9.2,-,0.01,,Overcast,80,2013-02-21 12:35:00
6:55 AM,28.4,24.8,86,29.67,3.0,ENE,12.7,-,0.01,,Mostly Cloudy,70,2013-02-21 12:55:00
7:15 AM,26.6,19.4,74,29.68,3.0,ENE,13.8,-,N/A,,Overcast,60,2013-02-21 13:15:00
7:35 AM,24.8,21.2,86,29.67,2.0,ENE,18.4,21.9,N/A,,Overcast,60,2013-02-21 13:35:00
7:55 AM,24.8,19.4,80,29.66,4.0,ENE,18.4,-,N/A,,Overcast,60,2013-02-21 13:55:00
8:15 AM,24.8,19.4,80,29.67,2.0,NE,18.4,-,N/A,,Overcast,40,2013-02-21 14:15:00
8:35 AM,24.8,19.4,80,29.68,1.2,NE,15.0,-,N/A,,Overcast,50,2013-02-21 14:35:00
8:55 AM,24.8,19.4,80,29.66,1.5,NNE,21.9,25.3,N/A,,Overcast,30,2013-02-21 14:55:00
9:15 AM,23.0,17.6,80,29.67,1.0,NE,19.6,-,N/A,,Overcast,40,2013-02-21 15:15:00
9:35 AM,21.2,17.6,86,29.73,1.2,NNE,13.8,-,N/A,,Overcast,30,2013-02-21 15:35:00
9:55 AM,21.2,15.8,80,29.72,0.5,NNE,15.0,-,0.01,,Overcast,30,2013-02-21 15:55:00
10:15 AM,21.2,15.8,80,29.71,0.5,NNE,17.3,-,N/A,,Overcast,30,2013-02-21 16:15:00
10:35 AM,21.2,17.6,86,29.71,0.5,NE,15.0,-,N/A,,Overcast,40,2013-02-21 16:35:00
11:15 AM,21.2,15.8,80,29.71,1.2,NNE,23.0,28.8,N/A,,Overcast,20,2013-02-21 17:15:00
11:35 AM,19.4,15.8,86,29.72,1.5,NNE,20.7,25.3,N/A,,Overcast,20,2013-02-21 17:35:00
11:55 AM,19.4,14.0,80,29.73,1.2,NNE,17.3,24.2,N/A,,Overcast,30,2013-02-21 17:55:00
12:15 PM,19.4,14.0,80,29.74,1.2,NNE,15.0,-,N/A,,Overcast,20,2013-02-21 18:15:00
12:35 PM,19.4,15.8,86,29.75,0.8,North,16.1,-,N/A,,Overcast,10,2013-02-21 18:35:00
12:55 PM,19.4,15.8,86,29.75,0.5,North,17.3,-,N/A,,Overcast,360,2013-02-21 18:55:00
1:15 PM,21.2,15.8,80,29.75,0.8,North,20.7,-,N/A,,Overcast,350,2013-02-21 19:15:00
1:35 PM,19.4,15.8,86,29.75,0.5,North,19.6,-,N/A,,Overcast,350,2013-02-21 19:35:00
1:55 PM,21.2,15.8,80,29.75,0.8,North,20.7,25.3,N/A,,Overcast,350,2013-02-21 19:55:00
2:15 PM,21.2,17.6,86,29.76,1.5,North,23.0,27.6,N/A,,Overcast,350,2013-02-21 20:15:00
2:35 PM,21.2,15.8,80,29.76,3.0,NNW,19.6,-,N/A,,Mostly Cloudy,340,2013-02-21 20:35:00
2:55 PM,21.2,15.8,80,29.77,4.0,NNW,24.2,-,N/A,,Mostly Cloudy,340,2013-02-21 20:55:00
3:15 PM,21.2,15.8,80,29.77,3.0,North,21.9,-,N/A,,Mostly Cloudy,350,2013-02-21 21:15:00
3:35 PM,21.2,15.8,80,29.77,4.0,North,24.2,-,N/A,,Mostly Cloudy,350,2013-02-21 21:35:00
3:55 PM,21.2,15.8,80,29.78,5.0,North,23.0,-,N/A,,Mostly Cloudy,350,2013-02-21 21:55:00
4:15 PM,21.2,15.8,80,29.79,5.0,NNW,21.9,29.9,N/A,,Overcast,340,2013-02-21 22:15:00
4:35 PM,21.2,15.8,80,29.80,10.0,NNW,18.4,25.3,N/A,,Scattered Clouds,340,2013-02-21 22:35:00
4:55 PM,19.4,14.0,80,29.81,10.0,NNW,18.4,-,N/A,,Clear,340,2013-02-21 22:55:00
5:15 PM,19.4,12.2,74,29.81,10.0,NNW,17.3,-,N/A,,Clear,330,2013-02-21 23:15:00
5:35 PM,19.4,12.2,74,29.82,10.0,NW,13.8,-,N/A,,Clear,320,2013-02-21 23:35:00
5:55 PM,19.4,12.2,74,29.83,10.0,NW,17.3,-,N/A,,Clear,320,2013-02-21 23:55:00
6:15 PM,19.4,10.4,68,29.83,10.0,NW,16.1,-,N/A,,Clear,320,2013-02-22 00:15:00
6:35 PM,17.6,10.4,73,29.84,10.0,NW,17.3,-,N/A,,Clear,320,2013-02-22 00:35:00
6:55 PM,17.6,10.4,73,29.85,10.0,NW,16.1,-,N/A,,Clear,320,2013-02-22 00:55:00
7:15 PM,17.6,8.6,68,29.86,10.0,NW,15.0,-,N/A,,Clear,320,2013-02-22 01:15:00
7:35 PM,17.6,8.6,68,29.87,10.0,NW,15.0,-,N/A,,Clear,320,2013-02-22 01:35:00
7:55 PM,15.8,8.6,73,29.88,10.0,NNW,12.7,-,N/A,,Clear,330,2013-02-22 01:55:00
8:15 PM,15.8,8.6,73,29.88,10.0,NNW,10.4,-,N/A,,Clear,330,2013-02-22 02:15:00
8:35 PM,14.0,6.8,73,29.90,10.0,West,8.1,-,N/A,,Clear,280,2013-02-22 02:35:00
8:55 PM,8.6,1.4,73,29.91,10.0,West,9.2,-,N/A,,Clear,270,2013-02-22 02:55:00
9:15 PM,10.4,5.0,79,29.92,10.0,WNW,11.5,-,N/A,,Clear,300,2013-02-22 03:15:00
9:35 PM,12.2,5.0,73,29.91,10.0,NW,13.8,-,N/A,,Clear,310,2013-02-22 03:35:00
9:55 PM,12.2,6.8,79,29.93,10.0,West,10.4,-,N/A,,Clear,280,2013-02-22 03:55:00
10:15 PM,12.2,3.2,67,29.94,10.0,WNW,12.7,-,N/A,,Clear,290,2013-02-22 04:15:00
10:35 PM,10.4,3.2,73,29.93,10.0,WNW,11.5,-,N/A,,Clear,300,2013-02-22 04:35:00
10:55 PM,10.4,3.2,73,29.93,10.0,NW,11.5,-,N/A,,Clear,320,2013-02-22 04:55:00
11:15 PM,12.2,6.8,79,29.93,10.0,NW,13.8,-,N/A,,Clear,320,2013-02-22 05:15:00
11:35 PM,12.2,5.0,73,29.93,10.0,NW,11.5,-,N/A,,Clear,320,2013-02-22 05:35:00
11:55 PM,12.2,6.8,79,29.94,10.0,NW,11.5,-,N/A,,Clear,310,2013-02-22 05:55:00